Погода Баяндай

Погода Баяндай : погода сейчас, прогноз погоды и архив. Всё, что Вы хотите узнать о погоде Баяндай!

Хотите узнать прогноз погоды Баяндай? Тогда Вам сюда: Погода Баяндай

Поиск расширенной информации на нашем сайте:

Другие новости

Новости СМИ2

Главная страница сайта

Новости сайта

03.07.2017

Напоминаем, что на нашем специализированном сайте Метеоцентр.Азия вы можете получить высокодетализированные автоматические прогнозы погоды по пунктам России, СНГ и мира в авиационном формате (включающие направление и скорость ветра, видимость, явления погоды, количество и форму облачности, нижнюю и верхнюю границу облачности).


Погода Баяндай - сегодня

Время (UTC), дата Ветер
(°,м/с) 
Видим.   Явления Облачность Т
(°С)
Тd
(°С)
f(%) Тe
(°С)
Pmin
(гПа)
dP
(гПа)
Po
(мм)
O2
(г/м3)
Тmin Tmax R s Состояние
почвы
06 22.05.18 270 (З) 5{12}  20000 м    9/6 1000 м средняя, верхняя 
[Cu med, cong|Ac lent|Cs]
+11.5 -7.9 25 +10  1000.8  -3.2  686  266           
12 22.05.18 260 (З) 2{11}  20000 м  слаб. ливневой дождь  10/10 600 м кучево-дожд. 
[Cb cap]
+4.8 +3.2 89 +4  1000.2  -1  684  270    +12.1     
15 22.05.18 260 (З) 20000 м  слаб. ливневой дождь  10/10 600 м кучево-дожд. 
[Cb cap]
+5.4 +4.3 93 +6  998.3  -1.6  683  269           
18 22.05.18 280 (З) 20000 м  слаб. ливневой дождь  10/10 600 м кучево-дожд. 
[Cb cap]
+7.1 +6.4 95 +7  996.6  -1  682  267           
21 22.05.18 250 (З) 20000 м    9/9 600 м кучево-дожд., верхняя 
[Cb calv|Ci fib]
+7.5 +5.6 88 +7  996.1  -0.4  682  266           
00 23.05.18 240 (ЮЗ) 20000 м    9/9 1000 м 
[Sc]
+8.5 +6.7 88 +9  995.1  -0.6  681  265  +4.7      влажная 
03 23.05.18 240 (ЮЗ) 20000 м  {ливн. осадки}  9/9 600 м кучево-дожд. 
[Cb calv]
+11.6 +8.3 80 +12  993  -1  680  261           
06 23.05.18 290 (З) 20000 м  слаб. ливневой дождь  10/10 600 м кучево-дожд. 
[Cb cap]
+13.4 +7.2 66 +13  992  -0.3  680  260           
09 23.05.18 320 (СЗ) 20000 м    10/10 600 м кучево-дожд. 
[Cb calv]
+16.3 +5.7 49 +16  991.3  0.1  680  258           
12 23.05.18 320 (СЗ) 20000 м  в посл. час ливневой дождь  8/8 600 м кучево-дожд. 
[Cb calv]
+13.9 +4.3 52 +14  993.3  1.1  681  260    +17.2  0.3     
15 23.05.18 080 (В) 20000 м    10/5 1000 м верхняя 
[Sc|Cs]
+9.8 +5 72 +11  994.9  0.2  681  264           
18 23.05.18 350 (С) 20000 м    6/3 1000 м верхняя 
[Sc|Ci fib]
+6.6 +5 90 +6  996.5  0.6  682  267           
21 23.05.18 тихо ()   20000 м  в посл. час ливневой дождь  9/9 600 м кучево-дожд. 
[Cb calv]
+5.7 +4.7 93 +6  997.6  0.8  682  268           
00 24.05.18 040 (СВ) 20000 м  {ливн. осадки}  9/9 600 м кучево-дожд., верхняя 
[Cb calv|Ci fib]
+7.5 +5.6 88 +7  998.4  1.2  683  267  +5.6    0.1    влажная 
03 24.05.18 020 (С) 20000 м  в посл. час ливневой дождь  9/9 600 м кучево-дожд., верхняя 
[Cb calv|Ci fib]
+10.7 +7.2 79 +11  999.5  685  264           
06 24.05.18 110 (В) 20000 м  {ливн. осадки}  9/8 600 м кучево-дожд., верхняя 
[Cb calv|Ci fib]
+16.8 +7.3 53 +18  998.8  1.1  686  259           
09 24.05.18 070 (В) 20000 м    9/8 600 м кучево-дожд., верхняя 
[Cb calv|Ci fib]
+18.7 +6.5 45 +20  999.2  0.8  686  258           
12 24.05.18 130 (ЮВ) 20000 м    9/1 1000 м верхняя 
[Cu Sc|Ci fib]
+16.6 +8.1 57 +17  1000.5  0.7  687  259    +20  0.0     
15 24.05.18 150 (ЮВ) 20000 м    9/0 верхняя 
[Cc]
+11.1 +4.6 64 +12  1004.5  688  266           
18 24.05.18 220 (ЮЗ) 20000 м    9/0 верхняя 
[Ci fib]
+8.7 +4.5 75 +8  1005.4  0.2  688  268           
21 24.05.18 240 (ЮЗ) 20000 м    10/0 средняя 
[As op]
+6.8 +5.8 93 +6  1007.2  689  270           
00 25.05.18 220 (ЮЗ) 1000 м  дымка  10/0 средняя 
[As op]
+6.4 +5.9 97 +5  1008.6  1.2  690  271  +6.3        сухая 
03 25.05.18 220 (ЮЗ) 20000 м    10/10 600 м кучево-дожд. 
[Cb calv]
+6.7 +4.7 87 +5  1008.9  0.3  690  271           
06 25.05.18 240 (ЮЗ) 20000 м  в посл. час ливневой дождь  10/10 600 м кучево-дожд. 
[Cb calv]
+4.8 +3.3 90 +3  1010.7  1.1  691  273           
12 25.05.18 240 (ЮЗ) 20000 м  {ливн. осадки}  10/10 600 м кучево-дожд. 
[Cb calv]
+2.8 +1 88 +2  1013.7  1.4  693  276    +7.1     
Время (UTC), дата Ветер
(°,м/с) 
Видим.   Явления Облачность Т
(°С)
Тd
(°С)
f(%) Тe
(°С)
Pmin
(гПа)
dP
(гПа)
Po
(мм)
O2
(г/м3)
Тmin Tmax R s Состояние
почвы

Для получения пояснительной информации подведите курсор к названию столбца.

ПОГОДА Баяндай - архив

Всё, что Вы хотите узнать о погоде Баяндай - удобно и подробно!

Выберите нужную дату (начиная с 1 января 2015* года) и нажмите кнопку "Найти".
Будут отображены архивные сводки погоды по пункту Баяндай, начиная с указанной даты.


Отображать данные в формате CSV (для использования в таблицах Excel)


Внимание! Наш архив погоды предназначен исключительно для личного некоммерческого использования в познавательных целях. Если Вам необходимы официальные справки о состоянии погоды (для производственных, юридических, коммерческих и т.п. целей), обращайтесь в органы Росгидромета.

*Примечание: данная дата относится к архиву по метеостанциям СССР (Россия, СНГ, Балтия).
Архив по метеостанциям Зарубежной Европы и Азии (кроме Китая) хранится 10 дней, по другим регионам земного шара (Китай, Африка, Америка, Австралия, Океания) - 1 день.

Баяндай - район местоположения метеостанции


Название, широта, долгота, высота метеостанции:
Баяндай 53.1°ш. 105.5°д. 762 м над ур. моря [Российская Федерация]

Дополнительная информация

В oтличие oт бoльшинства пoгoдных сайтoв мы публикуем пoдрoбную метеoинфoрмацию в детальнoм прoфессиoнальнoм фoрмате.

Характеристики температуры и влажнoсти вoздуха измеряются на высoте 2 м в тени вдали oт зданий и деревьев.
Скoрoсть ветра измеряется на высoте 10 м (на урoвне рoста челoвека скoрoсть ветра ниже в 1.5-2 раза). Если метеoстанция нахoдится в гoрoде или в лесу, тo скoрoсть ветра занижена на 2-4 м/с пo сравнению с oткрытым местoм. Скoрoсть ветра над акватoриями крупных рек и oзёр, а также на вершинах хoлмoв на 2-5 м/с выше, чем в oбычных услoвиях.
Атмoсфернoе давление в разных тoчках местнoсти мoжет значительнo oтличаться oт давления на метеoстанции, в зависимoсти oт услoвий рельефа (при пoдъёме на 10 м давление пoнижается примернo на 1 мм рт.ст.).